User: anonymous   Login
Location: Endfield
(51.6667°N, 0.0667°W)
Time: 07:33:45
(UTC+00:00)
Language:

Cosmos 1733 - Orbit

View from above orbital plane
View from above orbital plane
View from above satellite
View from above satellite

Ground track
Ground track

The orbit data is extracted from the following two-line orbital elements,

1 16611U 86018A   24196.89663484  .00019098  00000-0  54876-3 0  9998
2 16611  82.4825 346.1649 0007843 333.6628  26.4215 15.35668003101281
Epoch (UTC): 14 July 2024 21:31:09
Eccentricity: 0.0007843
inclination: 82.4825°
perigee height: 453 km
apogee height: 464 km
right ascension of ascending node: 346.1649°
argument of perigee: 333.6628°
revolutions per day: 15.35668003
mean anomaly at epoch: 26.4215°
orbit number at epoch: 10128

The dashed part of the orbit path shows where the satellite is in the earth's shadow,  

DLR